Location: Tel Aviv
(32.0670°N, 34.7670°E)
Time: 12:05:01
(UTC+02:00)

Courier 1B - Visible Passes

Search period start: 05 December 2023 00:00
Search period end: 15 December 2023 00:00
Orbit: 962 x 1208 km, 28.3° (Epoch: 04 December)

Date Brightness Start Highest point End Pass type
(mag) Time Alt. Az. Time Alt. Az. Time Alt. Az.
07 Dec 10.1 05:43:15 10° SSW 05:47:57 18° SSE 05:52:29 10° ESE visible
08 Dec 10.2 04:50:48 10° S 04:54:13 14° SSE 04:57:32 10° ESE visible
09 Dec 9.6 05:47:49 10° SW 05:54:01 29° SSE 05:59:55 10° E visible
10 Dec 9.7 04:54:31 10° SSW 05:00:14 24° SSE 05:05:44 10° ESE visible
11 Dec 9.9 04:01:32 10° SSW 04:06:28 18° SSE 04:11:14 10° ESE visible
11 Dec 8.9 05:53:11 10° SW 06:00:08 42° SSE 06:06:43 10° E visible
12 Dec 10.1 03:10:31 12° SSE 03:12:41 14° SSE 03:16:10 10° ESE visible
12 Dec 9.1 04:59:31 10° SW 05:06:19 36° SSE 05:12:47 10° E visible
13 Dec 9.3 04:07:50 17° SSW 04:12:29 29° SSE 04:18:41 10° E visible
13 Dec 8.5 05:59:00 10° WSW 06:06:20 55° SSE 06:13:15 10° E visible
14 Dec 9.5 03:18:04 23° SSE 03:18:39 24° SSE 03:24:24 10° ESE visible
14 Dec 8.6 05:05:06 10° WSW 05:12:27 49° SSE 05:19:24 10° E visible
